#timestamp,LO_Frequency,Hit,StdDev 
1531260015.7,286047001.5,N
1531260035.5,286047001.9,N
1531260055.3,286047002.7,N
1531260075.2,286047002.4,N
1531260095.0,286047002.6,N
1531260095.9,286047002.6,N
1531260115.8,286047002.6,N
1531260135.6,286047002.2,N
1531260155.4,286046999.7,N
1531260175.3,286047001.9,N
1531260195.1,286047002.2,N
1531260215.8,286047001.8,N
1531260235.7,286047004.0,N
1531260255.5,286047001.7,N
1531260275.4,286047002.2,N
1531260295.2,286046999.9,N
1531260315.0,286047002.8,N
1531260315.9,286047002.8,N
1531260335.8,286047001.1,N
1531260355.6,286047001.0,N
1531260375.4,286047000.4,N
1531260395.3,286046999.9,N
1531260415.1,286047000.3,N
1531260435.9,286047000.3,N
1531260455.7,286047000.3,N
1531260475.5,286047000.8,N
1531260495.4,286047000.9,N
1531260515.2,286047000.3,N
1531260535.1,286046998.9,N
1531260536.0,286046998.9,N
1531260555.8,286046998.2,N
1531260575.6,286047001.2,N
1531260595.5,286047000.5,N
1531260615.3,286047001.0,N
1531260635.1,286046998.3,N
1531260655.9,286046999.3,N
1531260675.7,286046999.2,N
1531260695.6,286046998.3,N
1531260715.4,286047000.9,N
1531260735.2,286047000.5,N
1531260755.1,286047000.6,N
1531260756.0,286047000.6,N
1531260775.8,286046999.7,N
1531260795.6,286047002.6,N
1531260815.5,286047002.4,N
1531260835.3,286046999.7,N
1531260855.2,286047001.5,N
1531260875.9,286047004.4,Y
1531260895.7,286047002.2,P
1531260915.6,286046999.8,N
1531260935.4,286047002.8,N
1531260955.3,286047000.3,N
1531260975.1,286047000.4,N
1531260976.0,286047000.4,N
1531260995.8,286047001.0,N
1531261015.7,286046998.8,N
1531261035.5,286047001.2,N
1531261055.4,286046998.6,N
1531261075.2,286047000.8,N
1531261095.0,286046998.7,N
1531261095.9,286046998.7,N
1531261115.8,286046998.8,N
1531261135.6,286046998.1,N
1531261155.4,286046999.1,N
1531261175.3,286046999.6,N
1531261195.1,286046999.6,N
1531261215.9,286046996.9,N
1531261235.7,286046998.8,N
1531261255.5,286047000.6,N
1531261275.4,286047001.0,N
1531261295.2,286047000.8,N
1531261315.1,286046999.0,N
1531261316.0,286046999.0,N
1531261335.8,286046999.6,N
1531261355.6,286046998.9,N
1531261375.5,286046996.6,N
1531261395.3,286046997.9,N
1531261415.1,286046997.8,N
1531261435.9,286046997.8,N
1531261455.7,286046997.2,N
1531261475.6,286046997.2,N
1531261495.4,286046997.7,N
1531261515.2,286046996.9,N
1531261535.1,286046997.4,N
1531261536.0,286046997.4,N
1531261555.8,286046997.2,N
1531261575.6,286046997.1,N
1531261595.5,286046995.9,Y
1531261615.3,286046996.9,P
1531261635.2,286046999.6,N
1531261655.9,286046996.9,N
1531261675.7,286046997.2,N
1531261695.6,286046997.3,N
1531261715.4,286047001.2,N
1531261735.3,286047000.9,N
1531261755.1,286046998.2,N
1531261756.0,286046998.2,N
1531261775.8,286046999.0,N
1531261795.7,286046998.5,N
1531261815.5,286047000.9,N
1531261835.3,286046998.9,N
1531261855.2,286046998.3,N
1531261875.0,286047001.2,N
1531261875.9,286047001.2,N
1531261895.8,286046999.3,N
1531261915.6,286046999.0,N
1531261935.4,286046999.5,N
1531261955.3,286046998.8,N
1531261975.1,286046998.8,N
1531261995.8,286046998.4,N
1531262015.7,286046999.1,N
1531262035.5,286046998.9,N
1531262055.4,286046999.0,N
1531262075.2,286046998.5,N
1531262095.0,286046998.5,N
1531262095.9,286046998.5,N
1531262115.8,286046998.8,N
1531262135.6,286047000.7,N
1531262155.4,286047000.7,N
1531262175.3,286047000.3,N
1531262195.1,286046999.9,N
1531262215.9,286047000.4,N
1531262235.7,286047000.5,N
1531262255.5,286046999.9,N
1531262275.4,286046999.9,N
1531262295.2,286046999.9,N
1531262315.0,286047002.4,N
1531262316.0,286047002.4,N
1531262335.8,286047002.0,N
1531262355.6,286047002.4,N
1531262405.5,286047002.5,E
1531262415.4,286047002.5,N
1531262435.3,286046998.1,P
1531262455.1,286046998.2,N
1531262456.0,286046998.2,N
1531262475.8,286047001.2,N
1531262495.7,286046998.2,N
1531262515.5,286047001.2,N
1531262535.3,286047000.5,N
1531262555.2,286047001.0,N
1531262575.0,286046998.1,N
1531262575.9,286046998.1,N
1531262595.8,286047000.9,N
1531262615.6,286047000.5,N
1531262635.4,286047002.8,N
1531262655.3,286047002.0,N
1531262675.1,286047001.6,N
1531262695.8,286047002.2,N
1531262715.7,286047002.1,N
1531262735.5,286047001.3,N
1531262755.4,286047004.4,N
1531262775.2,286047003.3,N
1531262795.0,286047003.1,N
1531262795.9,286047003.1,N
1531262815.8,286047005.6,N
1531262835.6,286047005.6,N
1531262855.4,286047005.7,N
1531262875.3,286047003.3,N
1531262895.1,286047006.0,N
1531262915.9,286047003.3,N
1531262935.7,286047005.8,N
1531262955.5,286047003.6,N
1531262975.4,286047003.7,N
1531262995.2,286047002.0,N
1531263015.0,286047002.5,N
1531263015.9,286047002.5,N
1531263035.8,286047001.6,N
1531263055.6,286047000.4,N
1531263075.5,286047001.2,N
1531263095.3,286047001.2,N
1531263115.1,286047001.1,N
1531263135.9,286047000.7,N
1531263155.7,286047002.1,N
1531263175.5,286047001.1,N
1531263195.4,286047000.9,N
1531263215.2,286047000.8,N
1531263235.1,286047000.0,N
1531263236.0,286047000.0,N
1531263255.8,286047000.7,N
1531263275.6,286046998.1,N
1531263295.5,286046998.2,N
1531263315.3,286046998.4,N
1531263335.2,286046999.0,N
1531263355.9,286046999.2,N
1531263375.7,286046998.7,N
1531263395.6,286046998.2,N
1531263415.4,286046998.3,N
1531263435.2,286047000.9,N
1531263455.1,286047000.9,N
1531263456.0,286047000.9,N
1531263475.8,286047001.2,N
1531263495.7,286047000.6,N
1531263515.5,286047000.9,N
1531263535.3,286047000.7,N
1531263555.2,286046999.9,N
1531263575.0,286047002.8,N
1531263575.9,286047002.8,N
1531263595.8,286047001.5,N
